Wind_Speed
76 73 70 69 62 55 50 53 51 50 51 52 51 49 50 49 51 49 52 45 46 51 52 53 55 58 59 65 69 73 71 71 72 71 74 64 70 69 80 83 81 83 80 73 72
79 75 74 70 65 59 53 54 55 52 51 54 53 51 50 49 48 51 52 47 45 48 53 56 56 58 62 65 65 68 71 74 80 76 72 67 63 66 68 78 83 82 83 72 75
80 78 75 71 67 62 57 58 55 54 53 55 54 52 51 50 47 52 54 47 44 49 52 56 61 64 67 66 66 67 66 76 80 80 77 69 59 64 66 68 76 81 80 76 75
80 78 77 73 67 62 61 59 59 59 58 58 57 57 53 53 53 52 53 50 47 49 49 53 54 59 64 70 69 68 68 73 80 81 79 71 66 61 64 64 67 78 79 75 79
80 79 78 71 68 63 63 60 60 59 57 58 60 59 55 54 56 50 55 56 50 49 50 51 51 51 56 65 73 69 71 70 75 80 81 76 68 69 62 65 62 68 70 77 79
77 78 76 72 69 69 69 66 67 65 65 61 58 58 60 61 52 51 56 58 55 54 52 50 52 50 51 57 64 74 73 71 71 76 80 77 73 70 65 64 59 59 59 67 80
72 74 74 72 70 67 67 68 70 67 70 68 60 57 65 62 58 58 54 58 57 57 56 54 53 52 51 52 57 63 72 72 71 72 78 80 73 69 71 63 61 55 47 48 61
72 72 73 71 71 70 73 73 70 71 69 67 58 55 66 64 60 60 57 61 60 59 61 58 57 54 49 50 52 56 64 71 74 75 75 82 72 74 74 64 60 54 50 49 51
70 72 73 71 72 73 75 75 75 75 72 62 58 58 61 64 64 63 62 62 62 62 63 65 60 53 49 47 47 48 50 65 73 77 78 80 75 78 77 67 61 54 49 46 48
57 67 74 75 76 76 76 76 72 67 66 63 59 58 65 69 67 64 63 66 65 65 67 69 60 54 53 52 51 60 61 68 69 78 84 78 75 80 80 69 61 55 52 45 44
44 51 62 65 68 75 76 76 73 72 67 66 64 63 67 70 68 68 67 69 71 70 73 71 57 51 64 66 68 68 66 66 66 75 86 78 77 80 82 71 64 56 52 45 44
49 50 49 49 52 71 82 84 77 76 70 66 64 63 72 67 70 73 73 74 75 76 78 68 52 68 76 77 76 76 73 67 69 75 89 85 79 84 82 70 65 56 52 45 45
57 55 56 54 54 56 57 61 75 75 67 61 69 70 73 72 67 77 76 79 80 82 81 73 69 81 83 85 82 80 73 73 70 79 89 88 83 85 78 69 66 57 54 43 45
65 63 60 60 56 56 57 55 58 67 63 58 65 71 73 71 69 75 77 82 84 86 86 82 86 87 88 84 84 81 80 81 74 79 88 94 83 83 76 73 65 57 50 42 45
72 71 66 63 60 60 55 56 54 56 52 54 61 65 68 71 70 77 82 87 92 88 91 87 86 88 85 77 83 73 79 77 76 77 87 93 83 81 80 72 60 58 48 46 44
78 75 73 67 64 61 57 56 50 49 50 51 56 60 66 69 74 79 86 88 87 87 84 79 77 76 75 73 69 66 69 71 74 79 90 90 80 83 77 68 61 58 47 46 47
83 79 75 71 68 61 57 54 43 47 52 49 53 57 64 69 78 83 79 80 74 69 62 54 51 48 48 50 52 51 64 64 69 78 76 85 81 82 77 68 63 56 50 49 50
85 81 76 71 64 61 55 45 40 49 46 45 48 56 64 70 76 72 70 63 51 40 36 31 31 34 36 40 43 52 66 61 60 72 80 83 82 80 75 68 61 55 51 51 51
71 75 70 67 62 57 47 35 42 39 41 43 48 56 62 66 62 62 54 42 30 27 22 20 22 23 25 27 33 44 49 64 72 80 86 82 79 84 73 66 61 56 55 55 53
58 62 57 60 54 45 34 35 36 33 36 40 49 53 55 53 53 50 36 27 23 18 14 13 15 19 24 32 45 55 61 69 75 78 80 79 83 79 71 65 61 58 58 55 52
53 49 48 51 43 35 32 38 30 32 32 38 46 45 42 47 42 32 23 15 10 9 7 11 17 29 39 44 52 56 67 71 71 69 79 79 78 74 67 64 62 60 59 55 51
45 44 48 43 36 37 36 31 30 26 30 36 35 32 37 40 31 22 6 9 16 28 47 47 48 60 61 62 57 66 59 53 60 72 78 75 77 70 66 64 61 60 58 54 50
42 45 43 41 43 38 34 30 23 24 28 28 22 25 30 29 21 10 16 27 37 48 58 58 59 62 69 65 56 51 49 53 74 76 74 74 73 69 64 62 60 59 56 51 49
42 43 44 49 45 39 32 25 22 23 23 15 15 18 23 20 18 12 24 38 49 52 55 57 59 50 43 53 48 33 47 60 66 73 71 72 70 67 63 62 60 58 56 52 51
42 44 53 51 47 38 31 25 21 21 14 9 10 13 17 21 15 7 28 41 51 53 55 54 56 45 43 52 57 51 58 69 68 72 72 69 67 64 62 60 58 56 56 54 54
48 55 57 51 43 37 31 24 21 16 12 6 4 11 18 19 16 8 8 29 49 51 54 55 54 54 53 52 53 59 67 70 71 72 71 70 65 60 57 56 55 54 54 53 54
56 59 56 49 43 35 28 23 20 16 15 10 3 8 13 11 7 3 18 26 42 47 53 56 56 53 53 57 60 62 67 67 68 65 60 60 60 56 53 51 50 51 51 54 56
Wind_Direction
247 251 257 263 266 265 271 273 274 273 272 276 276 277 273 272 269 269 267 269 272 270 268 262 258 253 249 246 240 239 237 235 233 234 235 232 230 238 235 237 237 238 239 239 243
246 248 253 259 264 266 267 268 272 275 270 272 276 280 277 270 271 268 269 272 277 272 269 265 260 259 251 247 245 238 234 232 233 232 235 232 231 237 236 236 236 239 238 237 244
244 247 251 257 262 265 267 267 270 271 271 272 276 276 281 272 269 268 267 272 277 272 270 269 265 258 253 249 244 241 236 232 233 233 233 234 229 235 237 238 237 238 240 234 243
243 247 251 255 258 263 265 266 270 272 273 274 275 277 281 273 269 274 276 274 276 279 277 274 274 259 251 246 244 240 237 233 233 233 233 233 229 233 239 240 238 237 240 237 241
245 247 250 254 258 258 263 267 269 270 272 272 275 276 278 279 271 274 281 280 280 284 283 281 284 268 255 248 243 238 236 234 234 231 232 232 231 232 239 240 239 238 242 241 239
246 247 250 253 257 262 265 264 265 267 273 274 275 276 279 275 284 277 280 281 284 284 286 281 287 279 261 252 247 239 236 234 234 233 230 230 229 232 237 239 239 237 235 240 241
246 247 250 254 257 260 263 265 265 266 272 274 274 274 276 278 283 281 276 279 281 283 285 283 285 286 263 256 250 243 236 234 233 234 229 227 227 230 233 237 239 238 237 240 241
245 249 253 254 258 260 263 265 264 269 272 274 273 273 274 277 278 282 277 279 280 282 287 285 286 285 267 255 250 245 239 233 233 232 230 225 221 226 230 232 236 236 237 240 240
247 249 252 254 255 258 261 264 265 267 270 272 271 272 272 275 279 281 279 282 282 283 286 287 286 278 268 262 256 253 243 232 230 230 230 226 217 223 227 230 231 235 237 241 244
249 249 251 252 256 260 262 262 262 265 268 270 271 269 272 273 277 281 278 281 282 282 284 285 278 271 268 266 262 252 239 229 226 227 225 223 214 222 224 226 227 231 234 239 243
250 251 250 253 257 258 259 259 259 264 268 270 270 270 269 273 278 280 280 282 283 283 285 284 281 274 265 261 257 254 246 237 231 229 225 222 213 218 223 221 224 228 230 235 240
257 255 256 258 260 258 259 259 257 260 262 264 267 268 268 271 278 279 282 285 284 284 286 282 275 263 261 260 258 256 251 246 238 229 226 219 211 214 218 217 222 225 228 230 237
256 255 256 260 260 263 264 261 258 255 258 261 265 267 269 272 277 279 284 284 284 285 283 276 269 266 264 261 259 256 252 249 240 232 222 219 213 212 213 214 220 221 226 226 235
259 259 258 261 261 261 265 269 260 252 254 256 261 266 269 275 281 282 284 285 286 285 280 275 269 265 262 260 257 253 250 244 236 230 217 217 209 210 208 211 214 219 223 225 231
259 261 260 262 262 262 267 268 262 251 252 253 256 264 271 278 281 285 286 286 284 279 278 276 270 268 265 260 253 246 244 239 231 221 213 214 206 207 205 210 211 218 215 220 225
259 259 259 260 260 263 266 268 260 250 252 251 256 262 271 277 281 285 286 286 283 283 280 274 269 265 261 255 251 242 237 231 224 214 207 208 201 204 202 204 206 215 212 218 222
257 259 259 260 259 261 264 265 253 244 248 253 260 268 274 280 285 289 289 287 286 281 276 271 262 252 246 242 237 224 221 217 213 209 200 203 197 201 198 200 205 210 210 214 219
252 253 254 257 258 259 262 257 246 240 250 258 266 273 280 286 290 290 293 290 288 279 272 257 247 240 232 226 219 210 209 200 198 200 195 198 191 199 195 199 203 209 210 212 217
244 247 249 250 250 252 253 244 237 240 251 263 274 280 287 292 293 298 298 292 283 264 249 239 228 222 215 209 202 201 192 184 186 193 194 193 188 196 193 197 201 207 212 211 217
238 237 236 237 237 239 230 227 227 239 256 271 278 286 291 296 303 305 299 291 268 253 234 226 206 193 166 174 182 181 177 176 187 189 187 184 187 191 191 196 200 206 213 213 216
231 229 223 220 219 213 204 217 225 243 261 273 282 290 297 305 315 309 311 270 225 207 154 122 151 151 148 162 163 171 166 175 180 183 179 183 185 191 192 195 201 207 214 214 216
222 215 211 205 193 186 198 207 228 246 262 274 288 296 308 323 314 323 271 177 146 132 120 118 133 135 144 142 149 154 160 164 179 179 182 179 183 191 193 199 203 208 215 216 218
206 202 196 181 174 180 194 207 224 246 262 280 290 305 331 326 340 298 145 153 143 133 129 129 135 139 147 143 145 155 166 175 178 176 180 178 183 191 194 200 205 209 214 219 224
194 191 175 168 172 181 191 201 223 245 268 271 295 326 345 354 348 142 142 146 133 131 135 138 137 134 142 161 155 160 161 175 172 177 178 179 185 193 198 202 207 212 216 221 228
182 167 166 165 174 179 189 200 219 242 243 252 310 353 9 18 342 321 156 149 140 138 142 147 149 150 154 157 160 181 169 173 175 177 177 183 188 195 201 205 210 215 220 226 231
169 167 165 168 171 178 189 199 216 230 210 211 333 23 28 25 4 298 177 172 157 153 153 155 159 166 169 170 180 181 173 176 178 179 181 184 191 199 205 210 215 221 225 229 234
167 167 167 169 172 178 183 196 207 201 190 167 120 56 48 48 26 142 179 179 166 165 163 166 171 174 183 184 181 177 178 180 180 181 182 188 195 201 208 214 219 224 228 232 237
Height
10646 10650 10656 10660 10665 10670 10673 10674 10675 10677 10677 10676 10677 10677 10677 10677 10677 10676 10670 10676 10676 10676 10678 10679 10680 10681 10686 10686 10693 10702 10719 10726 10725 10728 10726 10745 10753 10754 10765 10767 10776 10776 10790 10803 10804
10632 10637 10643 10649 10653 10658 10660 10662 10664 10665 10666 10665 10664 10665 10666 10667 10666 10660 10658 10662 10667 10664 10664 10665 10667 10669 10673 10673 10682 10691 10702 10706 10704 10711 10718 10732 10745 10747 10748 10754 10763 10768 10776 10797 10795
10617 10623 10630 10636 10640 10645 10648 10650 10652 10653 10654 10654 10653 10654 10655 10655 10655 10646 10646 10653 10654 10650 10650 10651 10652 10655 10656 10660 10667 10676 10687 10687 10690 10699 10706 10721 10737 10735 10739 10745 10752 10759 10767 10787 10779
10603 10610 10617 10623 10627 10631 10635 10637 10639 10640 10641 10642 10641 10643 10645 10643 10641 10636 10633 10636 10640 10638 10637 10636 10634 10637 10638 10645 10649 10661 10668 10672 10674 10686 10697 10712 10724 10729 10727 10731 10740 10748 10754 10772 10772
10590 10597 10603 10610 10613 10617 10621 10625 10626 10626 10628 10629 10630 10631 10633 10628 10624 10632 10620 10619 10625 10625 10622 10620 10620 10620 10623 10626 10633 10645 10650 10659 10663 10674 10686 10699 10713 10716 10721 10722 10731 10739 10747 10755 10761
10576 10583 10589 10596 10600 10603 10606 10611 10613 10613 10614 10616 10619 10620 10619 10608 10614 10620 10611 10605 10608 10610 10610 10608 10605 10606 10609 10613 10620 10627 10637 10649 10654 10661 10672 10687 10697 10704 10710 10712 10723 10731 10736 10742 10750
10562 10568 10575 10580 10585 10589 10592 10596 10598 10599 10601 10602 10607 10609 10603 10596 10601 10599 10604 10595 10596 10594 10594 10594 10595 10596 10598 10599 10605 10612 10625 10634 10644 10647 10656 10666 10688 10699 10688 10703 10711 10724 10727 10729 10737
10548 10554 10560 10565 10570 10574 10577 10580 10582 10585 10587 10588 10593 10596 10585 10584 10589 10584 10590 10581 10580 10582 10579 10578 10581 10583 10586 10590 10593 10598 10608 10621 10623 10628 10637 10650 10675 10675 10677 10690 10700 10711 10716 10719 10725
10535 10540 10545 10550 10554 10559 10561 10563 10564 10570 10574 10574 10578 10580 10572 10568 10569 10570 10569 10567 10567 10565 10565 10563 10566 10568 10570 10574 10579 10584 10592 10599 10603 10611 10621 10638 10658 10656 10667 10678 10690 10701 10706 10712 10717
10520 10524 10529 10534 10539 10544 10546 10545 10549 10555 10560 10561 10564 10565 10558 10555 10554 10553 10554 10551 10551 10551 10550 10546 10550 10553 10554 10558 10565 10557 10561 10568 10584 10588 10598 10618 10643 10639 10652 10667 10681 10690 10696 10703 10710
10505 10508 10513 10516 10522 10525 10525 10528 10535 10540 10545 10548 10550 10546 10541 10539 10540 10535 10536 10537 10533 10532 10529 10527 10537 10538 10527 10531 10535 10540 10550 10562 10573 10576 10587 10607 10626 10625 10639 10658 10671 10679 10688 10695 10700
10489 10493 10497 10502 10504 10507 10506 10510 10517 10524 10535 10535 10530 10530 10520 10529 10524 10517 10519 10519 10514 10510 10505 10510 10525 10503 10501 10508 10515 10521 10531 10548 10553 10559 10564 10586 10606 10608 10625 10650 10661 10669 10678 10688 10690
10472 10477 10480 10486 10489 10491 10491 10492 10497 10505 10518 10527 10511 10510 10504 10509 10515 10498 10502 10498 10492 10488 10481 10486 10493 10477 10480 10481 10490 10500 10513 10525 10532 10530 10546 10568 10590 10599 10622 10642 10650 10660 10669 10683 10684
10453 10458 10463 10467 10473 10478 10477 10480 10480 10488 10502 10510 10500 10491 10491 10494 10494 10484 10482 10474 10469 10462 10451 10458 10453 10452 10450 10459 10464 10474 10484 10487 10500 10504 10530 10542 10578 10591 10612 10624 10640 10652 10666 10676 10676
10432 10436 10444 10450 10457 10460 10466 10465 10466 10475 10487 10490 10485 10483 10481 10478 10476 10469 10458 10450 10442 10436 10423 10427 10426 10419 10422 10439 10425 10456 10448 10462 10472 10485 10505 10528 10562 10583 10595 10619 10637 10645 10659 10665 10669
10408 10416 10425 10434 10440 10446 10452 10452 10457 10464 10470 10474 10473 10474 10469 10463 10456 10451 10441 10428 10413 10402 10395 10395 10392 10389 10393 10396 10402 10424 10429 10441 10452 10467 10485 10519 10554 10566 10589 10612 10624 10635 10651 10657 10660
10385 10395 10405 10415 10424 10433 10439 10441 10448 10452 10454 10463 10462 10461 10456 10449 10438 10429 10417 10402 10392 10378 10368 10366 10363 10364 10369 10376 10385 10400 10409 10428 10444 10459 10501 10513 10542 10558 10581 10601 10615 10630 10641 10648 10652
10364 10375 10386 10398 10410 10419 10426 10433 10439 10439 10445 10451 10452 10448 10442 10434 10422 10408 10395 10379 10368 10359 10353 10350 10350 10352 10356 10362 10370 10382 10396 10425 10449 10470 10492 10508 10532 10554 10577 10593 10609 10622 10634 10643 10646
10343 10356 10370 10385 10395 10406 10417 10425 10425 10433 10439 10442 10440 10436 10429 10418 10406 10389 10375 10364 10356 10349 10346 10345 10346 10349 10355 10363 10373 10387 10410 10418 10437 10457 10479 10509 10530 10539 10570 10586 10603 10614 10625 10633 10639
10326 10339 10358 10368 10382 10397 10409 10414 10420 10429 10432 10433 10429 10426 10417 10404 10391 10373 10362 10356 10349 10347 10346 10346 10349 10352 10354 10357 10364 10376 10396 10416 10436 10454 10480 10508 10521 10544 10565 10581 10597 10608 10617 10626 10633
10314 10330 10345 10356 10373 10391 10400 10405 10416 10423 10426 10425 10421 10416 10407 10392 10379 10364 10357 10351 10346 10348 10349 10351 10354 10358 10363 10370 10382 10397 10409 10425 10443 10461 10483 10505 10528 10547 10566 10577 10588 10600 10610 10619 10628
10308 10322 10333 10349 10371 10382 10391 10403 10411 10417 10419 10417 10414 10408 10397 10382 10370 10360 10359 10349 10350 10352 10355 10362 10367 10372 10379 10385 10394 10405 10421 10439 10455 10471 10489 10510 10528 10546 10561 10573 10584 10595 10604 10614 10622
10299 10311 10328 10347 10363 10374 10388 10399 10406 10410 10411 10411 10408 10400 10390 10378 10365 10363 10360 10358 10357 10360 10363 10370 10380 10387 10392 10398 10409 10419 10431 10442 10459 10473 10495 10511 10529 10541 10557 10571 10580 10592 10601 10608 10615
10295 10310 10328 10343 10356 10372 10384 10394 10401 10404 10407 10406 10402 10395 10387 10375 10369 10369 10367 10367 10367 10371 10376 10383 10389 10400 10407 10413 10422 10432 10439 10452 10467 10484 10501 10515 10528 10541 10555 10567 10577 10587 10596 10602 10607
10295 10313 10327 10339 10352 10368 10380 10389 10396 10399 10402 10402 10398 10392 10385 10378 10375 10375 10376 10374 10378 10381 10388 10394 10400 10406 10413 10422 10427 10433 10445 10457 10471 10487 10502 10515 10528 10541 10552 10564 10574 10582 10590 10595 10599
10296 10310 10321 10338 10353 10364 10376 10385 10391 10395 10399 10399 10396 10393 10387 10384 10384 10382 10381 10382 10385 10388 10395 10400 10407 10413 10419 10425 10433 10440 10452 10461 10473 10486 10499 10513 10526 10540 10553 10563 10571 10579 10584 10589 10592
10294 10308 10323 10338 10350 10363 10373 10381 10387 10392 10396 10397 10396 10395 10395 10395 10395 10394 10393 10394 10394 10395 10400 10407 10412 10417 10423 10430 10436 10446 10456 10467 10480 10495 10510 10522 10530 10540 10551 10561 10567 10573 10577 10580 10584